[[{"header":{"parameterUnit":"m.s-1","parameterCategory":2,"la1":30.2991,"la2":30.254,"lo1":-89.0895,"lo2":-89.0444,"dy":0.0017,"dx":0.0017,"nx":28,"ny":28,"refTime":"2024-05-21T03:00:00:Z","depth":"0","parameterNumber":2,"parameterNumberName":"U-component_of_CURRENTS"},"data":[0,0,0,0,0,0,0,0,0,0,0,0,0,0,0,0,0,0,0,0,0,0,0,0,0,0,0,0,0,0,0,0,0,0,0,0,0,0,0,0,0,0,0,0,0,0,0,0,0,0,0,0,0,0,0,0,0,0,0.1889,0.1889,0,0.1885,0.1885,0.1884,0.1861,0.1861,0.1861,0.186,0.1819,0.1818,0.1817,0,0,0,0,0,0,0,0,0,0,0,0,0,0.1884,0.1884,0.1889,0.1889,0.1889,0.1885,0.1885,0.1884,0.1861,0.1861,0.1861,0.186,0.1819,0.1818,0.1817,0,0,0,0,0,0,0,0,0,0,0,0,0,0.1881,0.1884,0.1889,0.1879,0.1879,0.1885,0.1885,0.1884,0.1861,0.1861,0.1861,0.186,0.1819,0.1818,0.1817,0.1818,0,0,0.1813,0.1812,0,0,0,0,0,0,0,0,0.1881,0.1881,0.1881,0.188,0.1879,0.1876,0.1868,0.1861,0.1862,0.1865,0.186,0.186,0.1836,0.1834,0.183,0.1816,0.1814,0.1813,0.1812,0.1811,0.1811,0,0,0,0,0,0,0,0.1881,0.1881,0.1884,0.1881,0.188,0.1878,0.1877,0.1866,0.185,0.1865,0.1864,0.1868,0.1835,0.1832,0.1829,0.1813,0.1813,0.1812,0.1811,0.181,0.1873,0.1876,0,0,0,0,0,0,0.1888,0.1881,0.1884,0.1884,0.1883,0.1879,0.1877,0.1875,0.1851,0.1848,0.1868,0.1867,0.1834,0.1831,0.1828,0.1885,0.1811,0.181,0.1809,0.1871,0.1874,0.1877,0,0,0,0,0,0,0.1888,0.1888,0.1885,0.1885,0.1885,0.188,0.1877,0.1875,0.1882,0.1855,0.1851,0.1878,0.1834,0.1829,0.1842,0.1881,0.181,0.1808,0.1868,0.1872,0.1875,0.1964,0,0,0,0,0,0,0.1887,0.1888,0.1889,0.1886,0.1886,0.1905,0.1878,0.1876,0.1886,0.1884,0.1862,0.1857,0.1833,0.1844,0.184,0.1878,0.1807,0.1865,0.187,0.1874,0.1958,0.197,0.198,0,0,0,0,0,0.1887,0.1893,0.1889,0.1889,0.1887,0.1906,0.1906,0.1898,0.1887,0.19,0.189,0.1858,0.1871,0.1844,0.184,0.1878,0.1863,0.1868,0.1874,0.1953,0.1967,0.198,0,0,0,0,0,0,0.1889,0.1892,0.1886,0.1892,0.1906,0.1904,0.1913,0.1909,0.1911,0.1908,0.1879,0.1874,0.1907,0.1883,0.1854,0.1914,0.1866,0.1871,0.1928,0.1941,0.1952,0.1976,0.1806,0,0,0,0,0,0.1892,0.1897,0.1904,0.191,0.1919,0.1919,0.1925,0.1925,0.1926,0.1926,0.1913,0.191,0.1925,0.1924,0.1927,0.1948,0.1971,0.1975,0.1986,0.1996,0.2016,0.2095,0.2116,0.1895,0.1895,0.1894,0,0,0.1893,0.1896,0.1898,0.1912,0.1918,0.1943,0.1921,0.1941,0.1967,0.1922,0.1948,0.1948,0.1942,0.1976,0.1988,0.1958,0.2075,0.2003,0.2011,0.2026,0.2103,0.2125,0.2144,0.1898,0.1898,0.1897,0,0,0.1909,0.1905,0.1921,0.1939,0.196,0.1965,0.1978,0.1989,0.1999,0.2025,0.2015,0.2047,0.2039,0.2063,0.2069,0.2147,0.2138,0.2142,0.2209,0.2286,0.2305,0.2322,0.2392,0.2414,0.2141,0.2141,0.2141,0,0.1912,0.1933,0.1931,0.196,0.1983,0.1981,0.2018,0.2032,0.2047,0.2071,0.2045,0.2099,0.2091,0.2161,0.219,0.2175,0.221,0.2152,0.2302,0.2319,0.2335,0.2402,0.2426,0.2146,0.2145,0.2145,0.2144,0,0.1949,0.1969,0.1985,0.2018,0.2043,0.2075,0.21,0.2128,0.2135,0.2151,0.2218,0.222,0.2256,0.2264,0.2246,0.2358,0.2347,0.2312,0.2266,0.2362,0.2427,0.245,0.2153,0.2151,0.215,0.2148,0,0,0.1946,0.2,0.2005,0.2032,0.2081,0.2101,0.2161,0.2218,0.2266,0.2284,0.236,0.2395,0.24,0.2412,0.2407,0.2469,0.2612,0.244,0.2441,0.2508,0.2789,0.2779,0.2802,0.2601,0.2605,0.2608,0.2793,0,0.198,0.2037,0.2063,0.2124,0.2158,0.2192,0.2246,0.2296,0.2338,0.2407,0.2441,0.2501,0.2455,0.2486,0.2546,0.2596,0.2675,0.2565,0.2687,0.2691,0.2669,0.283,0.2727,0.2883,0.2816,0.2819,0.2822,0,0.2012,0.2047,0.2111,0.2181,0.2201,0.2237,0.2331,0.2384,0.2482,0.252,0.2591,0.2615,0.2719,0.2662,0.281,0.2741,0.2786,0.2816,0.2823,0.28,0.2725,0.2774,0.2927,0.2858,0.2857,0.2854,0.2852,0,0.2007,0.2081,0.2132,0.2156,0.2234,0.2274,0.2321,0.2414,0.2475,0.2604,0.2664,0.2767,0.283,0.2909,0.2963,0.2905,0.3126,0.3049,0.3089,0.3087,0.3019,0.3005,0.3117,0.3186,0.3185,0.3185,0.3184,0,0.2032,0.207,0.2128,0.2153,0.2212,0.2275,0.2359,0.2424,0.2544,0.2631,0.2716,0.2816,0.2896,0.3011,0.3046,0.3157,0.3199,0.3156,0.3158,0.3047,0.3034,0.2981,0.2936,0.3192,0.319,0.3189,0.3188,0,0.2015,0.2061,0.2109,0.2184,0.2208,0.2245,0.2352,0.2421,0.2538,0.2666,0.2716,0.2884,0.3044,0.3126,0.3277,0.3265,0.3289,0.3391,0.3255,0.3239,0.3176,0.3139,0.3138,0.3039,0.3476,0.3477,0.3478,0,0.2012,0.2036,0.2099,0.2125,0.2155,0.2223,0.2277,0.2396,0.2473,0.2704,0.2765,0.2975,0.3097,0.3325,0.339,0.3499,0.3362,0.344,0.3312,0.3218,0.3178,0.3009,0.2911,0.3262,0.3261,0.326,0.326,0,0.2,0.2016,0.2054,0.2092,0.2137,0.2188,0.2272,0.2329,0.2492,0.2609,0.2794,0.2926,0.3179,0.3271,0.3424,0.3459,0.3277,0.3428,0.3373,0.3085,0.2867,0.2754,0.3087,0.3254,0.3254,0.3255,0.3255,0.3255,0.1983,0.1988,0.2028,0.206,0.2105,0.2138,0.2156,0.2268,0.2374,0.2536,0.2726,0.2891,0.3111,0.3327,0.3341,0.3328,0.3271,0.3232,0.322,0.3075,0.2907,0.3235,0.3365,0.3366,0.3367,0.3368,0.3369,0,0.1949,0.1963,0.1997,0.2022,0.2032,0.2072,0.2141,0.2155,0.2238,0.2437,0.2584,0.2841,0.2964,0.3107,0.3225,0.3143,0.2937,0.3055,0.2792,0.2721,0.3076,0.2993,0.2996,0.2996,0.2996,0.2996,0.2996,0.2996,0.1938,0.1944,0.1954,0.1941,0.1954,0.193,0.1943,0.1986,0.2092,0.226,0.2418,0.2602,0.2907,0.3106,0.3086,0.2999,0.2747,0.2637,0.2604,0.2864,0.2878,0.289,0.2802,0.2765,0.2764,0.2104,0.21,0.2096]},{"header":{"parameterUnit":"m.s-1","parameterCategory":2,"la1":30.2991,"la2":30.254,"lo1":-89.0895,"lo2":-89.0444,"dy":0.0017,"dx":0.0017,"nx":28,"ny":28,"refTime":"2024-05-21T03:00:00:Z","depth":"0","parameterNumber":3,"parameterNumberName":"V-component_of_CURRENTS"},"data":[0,0,0,0,0,0,0,0,0,0,0,0,0,0,0,0,0,0,0,0,0,0,0,0,0,0,0,0,0,0,0,0,0,0,0,0,0,0,0,0,0,0,0,0,0,0,0,0,0,0,0,0,0,0,0,0,0,0,-0.0096,-0.0096,0,-0.0127,-0.0128,-0.0128,-0.013,-0.0129,-0.0129,-0.0129,-0.0109,-0.0108,-0.0108,0,0,0,0,0,0,0,0,0,0,0,0,0,-0.0049,-0.005,-0.0096,-0.0096,-0.0097,-0.0127,-0.0128,-0.0128,-0.013,-0.0129,-0.0129,-0.0129,-0.0109,-0.0108,-0.0108,0,0,0,0,0,0,0,0,0,0,0,0,0,-0.0073,-0.005,-0.0095,-0.0102,-0.0103,-0.0127,-0.0128,-0.0128,-0.013,-0.0129,-0.0129,-0.0129,-0.0109,-0.0108,-0.0108,-0.0111,0,0,-0.0106,-0.0106,0,0,0,0,0,0,0,0,-0.0071,-0.0074,-0.0101,-0.0102,-0.0103,-0.0126,-0.0104,-0.012,-0.013,-0.0118,-0.0129,-0.0129,-0.0111,-0.011,-0.0115,-0.0111,-0.011,-0.0106,-0.0106,-0.0106,-0.0106,0,0,0,0,0,0,0,-0.007,-0.0073,-0.0107,-0.0101,-0.0103,-0.0108,-0.0111,-0.0107,-0.0114,-0.0119,-0.012,-0.0126,-0.0111,-0.0116,-0.0115,-0.0109,-0.0106,-0.0106,-0.0106,-0.0105,-0.0121,-0.0122,0,0,0,0,0,0,-0.0069,-0.0071,-0.0106,-0.0108,-0.0088,-0.011,-0.0112,-0.0117,-0.0115,-0.0115,-0.0126,-0.0126,-0.0117,-0.0115,-0.0114,-0.0109,-0.0106,-0.0105,-0.0105,-0.0121,-0.0122,-0.0122,0,0,0,0,0,0,-0.0068,-0.0071,-0.0104,-0.0091,-0.0096,-0.0111,-0.0116,-0.0118,-0.0124,-0.0121,-0.012,-0.013,-0.0117,-0.0115,-0.0118,-0.0109,-0.0105,-0.0105,-0.012,-0.0121,-0.0122,-0.0105,0,0,0,0,0,0,-0.0066,-0.0071,-0.0074,-0.0091,-0.0097,-0.0114,-0.0117,-0.0119,-0.0129,-0.0129,-0.0124,-0.0122,-0.0116,-0.0119,-0.0117,-0.0108,-0.0104,-0.0119,-0.012,-0.0122,-0.0105,-0.0105,-0.0106,0,0,0,0,0,-0.0064,-0.0065,-0.0074,-0.0078,-0.0101,-0.0114,-0.0117,-0.0125,-0.013,-0.013,-0.0135,-0.0122,-0.0126,-0.0119,-0.0117,-0.0107,-0.0118,-0.012,-0.0122,-0.0104,-0.0105,-0.0106,0,0,0,0,0,0,-0.0045,-0.0066,-0.0076,-0.0083,-0.0097,-0.0115,-0.0115,-0.0128,-0.0134,-0.013,-0.013,-0.0129,-0.0129,-0.0128,-0.012,-0.012,-0.0121,-0.0122,-0.0108,-0.0109,-0.011,-0.0084,-0.0104,0,0,0,0,0,-0.0044,-0.0049,-0.0072,-0.0077,-0.0083,-0.0102,-0.0109,-0.0116,-0.0126,-0.0128,-0.0129,-0.0132,-0.0136,-0.013,-0.0133,-0.013,-0.013,-0.0125,-0.0126,-0.0126,-0.0107,-0.0119,-0.0118,-0.0128,-0.0128,-0.0128,0,0,-0.0038,-0.005,-0.0053,-0.0073,-0.0083,-0.0081,-0.0104,-0.0111,-0.0106,-0.0124,-0.0116,-0.0134,-0.0139,-0.0137,-0.0136,-0.0132,-0.0127,-0.0128,-0.0128,-0.0108,-0.012,-0.0119,-0.0118,-0.0129,-0.0129,-0.0128,0,0,-0.0018,-0.0038,-0.0031,-0.004,-0.0057,-0.0068,-0.0071,-0.0091,-0.0095,-0.0102,-0.0114,-0.013,-0.0132,-0.0133,-0.0134,-0.0142,-0.0135,-0.0147,-0.0118,-0.0131,-0.0129,-0.0128,-0.0134,-0.0134,-0.0141,-0.0141,-0.0141,0,-0.0007,-0.0002,-0.0031,-0.0024,-0.0023,-0.006,-0.0045,-0.0058,-0.0077,-0.0074,-0.0094,-0.0113,-0.0126,-0.0116,-0.0125,-0.0139,-0.0144,-0.0111,-0.0129,-0.0128,-0.0127,-0.0134,-0.0133,-0.014,-0.0141,-0.0141,-0.0141,0,0.0022,0.0027,0.0031,0.0031,0.0023,0.0029,0.0007,0.0003,-0.0016,-0.0031,-0.004,-0.0073,-0.0078,-0.0097,-0.0112,-0.011,-0.0117,-0.0132,-0.012,-0.0124,-0.0132,-0.0132,-0.014,-0.014,-0.014,-0.014,0,0,0.0056,0.0055,0.0058,0.0074,0.0056,0.0058,0.0064,0.0062,0.008,0.0037,0.0057,0.001,-0.0018,-0.0023,-0.0053,-0.007,-0.0085,-0.0095,-0.0096,-0.0089,-0.0106,-0.0121,-0.0123,-0.0104,-0.0104,-0.0104,-0.0117,0,0.0096,0.013,0.0111,0.0146,0.0165,0.0139,0.0151,0.0141,0.0125,0.0133,0.0084,0.0085,0.0014,0.0015,-0.0021,-0.0059,-0.0082,-0.0079,-0.0113,-0.0114,-0.0117,-0.0122,-0.0113,-0.0125,-0.0116,-0.0116,-0.0116,0,0.0139,0.0158,0.0198,0.0221,0.0226,0.0235,0.0259,0.0267,0.0258,0.0247,0.0222,0.0184,0.0153,0.0092,0.0017,0.0022,-0.0039,-0.0081,-0.0083,-0.0096,-0.0128,-0.012,-0.0125,-0.0295,-0.0116,-0.0116,-0.0116,0,0.0197,0.0223,0.026,0.0266,0.0278,0.0295,0.0306,0.0304,0.0336,0.033,0.0357,0.0285,0.0281,0.0185,0.0078,0.0052,0.0002,-0.0044,-0.0116,-0.0118,-0.0114,-0.0116,-0.0272,-0.0095,-0.0095,-0.0095,-0.0095,0,0.0252,0.0286,0.0292,0.0316,0.037,0.0355,0.0416,0.0415,0.0443,0.0509,0.0424,0.047,0.0305,0.0251,0.0126,0.0015,0.0035,-0.0101,-0.012,-0.0111,-0.0112,-0.0263,-0.0357,-0.0096,-0.0096,-0.0095,-0.0095,0,0.0308,0.0311,0.0363,0.0387,0.0399,0.044,0.0499,0.0553,0.0563,0.0653,0.0665,0.0618,0.0551,0.0385,0.0247,0.0102,-0.0108,-0.0059,-0.0037,-0.0054,-0.0301,-0.0393,-0.0545,-0.0619,-0.0147,-0.0148,-0.0148,0,0.0341,0.0371,0.0419,0.0461,0.0473,0.0534,0.0588,0.0612,0.0683,0.0765,0.0827,0.0784,0.0794,0.0568,0.0297,0.0076,-0.0092,-0.0078,-0.0138,-0.0307,-0.0424,-0.0499,-0.0555,-0.0131,-0.0131,-0.0131,-0.0131,0,0.0409,0.0421,0.0463,0.0546,0.0606,0.0685,0.0766,0.0842,0.0905,0.0995,0.1112,0.1133,0.0913,0.0686,0.0345,0.0177,-0.0207,-0.0089,-0.0269,-0.0426,-0.051,-0.059,-0.0131,-0.0133,-0.0132,-0.0132,-0.0132,-0.0132,0.0466,0.0507,0.0565,0.0642,0.072,0.0833,0.0927,0.1032,0.1174,0.1331,0.1333,0.1403,0.1036,0.0576,0.0305,-0.0211,-0.0219,-0.0367,-0.0463,-0.0522,-0.0608,-0.015,-0.0174,-0.0174,-0.0174,-0.0174,-0.0174,0,0.054,0.0583,0.0663,0.0765,0.0867,0.0888,0.1048,0.116,0.1352,0.1491,0.1604,0.1479,0.1025,0.0542,-0.0154,-0.0521,-0.066,-0.072,-0.0836,-0.0874,-0.0466,-0.0482,-0.0566,-0.0566,-0.0566,-0.0566,-0.0566,-0.0565,0.059,0.0672,0.0706,0.0874,0.0952,0.1108,0.1211,0.1377,0.1507,0.1694,0.175,0.1766,0.1406,0.0152,-0.0714,-0.0913,-0.1158,-0.1213,-0.1344,-0.1088,-0.1062,-0.1039,-0.1077,-0.1285,-0.1286,-0.1704,-0.1708,-0.1711]}],[{"header":{"parameterUnit":"m.s-1","parameterCategory":2,"la1":30.2991,"la2":30.254,"lo1":-89.0895,"lo2":-89.0444,"dy":0.0017,"dx":0.0017,"nx":28,"ny":28,"refTime":"2024-05-21T03:00:00:Z","depth":"2","parameterNumber":2,"parameterNumberName":"U-component_of_CURRENTS"},"data":[0,0,0,0,0,0,0,0,0,0,0,0,0,0,0,0,0,0,0,0,0,0,0,0,0,0,0,0,0,0,0,0,0,0,0,0,0,0,0,0,0,0,0,0,0,0,0,0,0,0,0,0,0,0,0,0,0,0,0.1988,0.1988,0,0.1991,0.1991,0.1991,0.1971,0.197,0.197,0.1969,0.1926,0.1925,0.1924,0,0,0,0,0,0,0,0,0,0,0,0,0,0.1962,0.1963,0.1988,0.1988,0.1988,0.1992,0.1991,0.1991,0.1971,0.197,0.197,0.1969,0.1926,0.1925,0.1924,0,0,0,0,0,0,0,0,0,0,0,0,0,0.1968,0.1963,0.1988,0.198,0.198,0.1992,0.1991,0.1991,0.1971,0.197,0.197,0.1969,0.1926,0.1925,0.1924,0.1928,0,0,0.192,0.192,0,0,0,0,0,0,0,0,0.1968,0.1969,0.1981,0.1981,0.198,0.1982,0.1966,0.1968,0.1971,0.1972,0.1969,0.1969,0.1942,0.194,0.1939,0.1925,0.1924,0.192,0.1919,0.1919,0.1919,0,0,0,0,0,0,0,0.1967,0.1969,0.1987,0.1981,0.1981,0.1977,0.1977,0.1967,0.1957,0.1971,0.1971,0.1975,0.1941,0.194,0.1938,0.1923,0.192,0.1919,0.1918,0.1918,0.1979,0.1982,0,0,0,0,0,0,0.1973,0.1968,0.1987,0.1987,0.1975,0.1978,0.1978,0.198,0.1958,0.1956,0.1976,0.1974,0.1942,0.1939,0.1936,0.1992,0.1919,0.1918,0.1917,0.1977,0.198,0.1983,0,0,0,0,0,0,0.1972,0.1974,0.1987,0.198,0.1981,0.1979,0.1982,0.1981,0.1987,0.1962,0.1958,0.1985,0.1942,0.1938,0.195,0.1987,0.1917,0.1916,0.1974,0.1978,0.1981,0.2069,0,0,0,0,0,0,0.1971,0.1974,0.1978,0.198,0.1982,0.2008,0.1983,0.1981,0.1991,0.199,0.1969,0.1964,0.1941,0.1952,0.1949,0.1985,0.1915,0.1971,0.1976,0.198,0.2063,0.2075,0.2085,0,0,0,0,0,0.197,0.1979,0.1978,0.198,0.1987,0.2009,0.201,0.2004,0.1993,0.2006,0.1997,0.1965,0.1978,0.1953,0.1948,0.1985,0.1969,0.1975,0.198,0.2058,0.2073,0.2085,0,0,0,0,0,0,0.1966,0.1978,0.1977,0.1987,0.2005,0.2007,0.2017,0.2014,0.2017,0.2014,0.1986,0.1982,0.2012,0.1989,0.1962,0.2019,0.1972,0.1977,0.2033,0.2047,0.2057,0.2076,0.1914,0,0,0,0,0,0.197,0.1979,0.1994,0.2004,0.2015,0.2018,0.2026,0.2026,0.203,0.203,0.2018,0.2015,0.2031,0.2029,0.2033,0.2054,0.2063,0.2079,0.2091,0.21,0.2115,0.2185,0.2203,0.2,0.2,0.2,0,0,0.1969,0.1978,0.1982,0.2004,0.2013,0.2042,0.2021,0.2042,0.2067,0.2025,0.2051,0.2051,0.2048,0.2081,0.2093,0.2064,0.2162,0.2107,0.2115,0.2124,0.2192,0.2212,0.223,0.2004,0.2003,0.2002,0,0,0.1981,0.1986,0.2004,0.2025,0.205,0.206,0.2072,0.2086,0.2096,0.2122,0.2114,0.2144,0.214,0.2163,0.217,0.2246,0.2223,0.2242,0.2304,0.2372,0.239,0.2405,0.2434,0.2452,0.2242,0.2242,0.2242,0,0.198,0.2005,0.2013,0.2043,0.2067,0.2074,0.211,0.2127,0.2143,0.2167,0.2141,0.2195,0.2188,0.2257,0.2286,0.2273,0.2292,0.2249,0.2387,0.2403,0.2417,0.2443,0.2461,0.2247,0.2246,0.2246,0.2245,0,0.2011,0.2035,0.2051,0.2092,0.2122,0.2152,0.2185,0.2213,0.2223,0.2242,0.2306,0.2309,0.2344,0.2353,0.2339,0.2442,0.2416,0.2398,0.2352,0.2443,0.2465,0.2482,0.2254,0.2252,0.225,0.2249,0,0,0.1994,0.206,0.2064,0.2092,0.2152,0.2174,0.2238,0.2299,0.2344,0.2366,0.2435,0.2474,0.248,0.2492,0.2489,0.2544,0.2656,0.2515,0.2517,0.2541,0.2788,0.2744,0.2758,0.2663,0.2667,0.267,0.2759,0,0.2016,0.2071,0.211,0.217,0.2203,0.225,0.2305,0.2361,0.2408,0.2474,0.2512,0.2569,0.2532,0.256,0.2614,0.2648,0.2707,0.2632,0.2699,0.27,0.2649,0.2779,0.2566,0.2627,0.2775,0.2778,0.278,0,0.2035,0.2068,0.2132,0.2206,0.2227,0.2271,0.2369,0.2423,0.2526,0.2562,0.2636,0.2668,0.2759,0.2715,0.2823,0.2775,0.2799,0.2816,0.282,0.2763,0.2691,0.2562,0.2652,0.2808,0.2806,0.2804,0.2802,0,0.2007,0.2084,0.2134,0.216,0.2248,0.2293,0.2345,0.2447,0.2505,0.2634,0.269,0.2787,0.2836,0.2901,0.293,0.2894,0.3041,0.2991,0.2975,0.297,0.2794,0.2768,0.3097,0.3097,0.3097,0.3097,0.3096,0,0.2012,0.2049,0.2121,0.2144,0.2206,0.2276,0.2364,0.2432,0.2548,0.2638,0.2729,0.2809,0.289,0.2973,0.2992,0.3038,0.3093,0.3023,0.3014,0.2817,0.2793,0.2947,0.2928,0.31,0.3099,0.3098,0.3098,0,0.198,0.203,0.2083,0.2167,0.2195,0.2238,0.2355,0.2415,0.2528,0.2658,0.2708,0.2846,0.2958,0.3025,0.3132,0.3105,0.3163,0.3164,0.2911,0.2873,0.3025,0.301,0.3167,0.3166,0.3166,0.3166,0.3166,0,0.1975,0.1996,0.2077,0.2108,0.215,0.2223,0.2273,0.2388,0.2458,0.2674,0.2725,0.2891,0.2975,0.3097,0.3123,0.3173,0.3193,0.2977,0.2885,0.3069,0.3044,0.3029,0.3015,0.2674,0.267,0.2667,0.2664,0,0.1959,0.1987,0.2028,0.2075,0.2127,0.2183,0.2265,0.2309,0.2468,0.2571,0.2717,0.2815,0.2968,0.2928,0.2998,0.2989,0.2954,0.2911,0.3203,0.2693,0.2614,0.2586,0.2586,0.2634,0.2637,0.2639,0.2641,0.2642,0.1947,0.1961,0.2005,0.2047,0.2095,0.2126,0.2151,0.2235,0.2319,0.2445,0.2594,0.2654,0.2735,0.2735,0.269,0.2669,0.2861,0.272,0.2727,0.2738,0.267,0.2595,0.2596,0.2599,0.2601,0.2603,0.2605,0,0.1921,0.194,0.1975,0.2015,0.2026,0.2073,0.2132,0.2135,0.2186,0.2302,0.2389,0.2257,0.2261,0.2338,0.2283,0.2314,0.2249,0.2203,0.2092,0.2127,0.2158,0.2053,0.1819,0.1816,0.1813,0.181,0,0,0.1919,0.192,0.1926,0.1927,0.1954,0.1951,0.1961,0.1972,0.2022,0.1985,0.199,0.2155,0.2288,0.2007,0.2008,0.1902,0.1983,0.1831,0.2476,0.2383,0.2408,0.2491,0.2377,0,0,0,0,0]},{"header":{"parameterUnit":"m.s-1","parameterCategory":2,"la1":30.2991,"la2":30.254,"lo1":-89.0895,"lo2":-89.0444,"dy":0.0017,"dx":0.0017,"nx":28,"ny":28,"refTime":"2024-05-21T03:00:00:Z","depth":"2","parameterNumber":3,"parameterNumberName":"V-component_of_CURRENTS"},"data":[0,0,0,0,0,0,0,0,0,0,0,0,0,0,0,0,0,0,0,0,0,0,0,0,0,0,0,0,0,0,0,0,0,0,0,0,0,0,0,0,0,0,0,0,0,0,0,0,0,0,0,0,0,0,0,0,0,0,-0.018,-0.018,0,-0.0218,-0.0219,-0.0219,-0.0227,-0.0226,-0.0226,-0.0226,-0.0209,-0.0208,-0.0208,0,0,0,0,0,0,0,0,0,0,0,0,0,-0.0134,-0.0134,-0.018,-0.018,-0.0181,-0.0218,-0.0219,-0.0219,-0.0227,-0.0226,-0.0226,-0.0226,-0.0209,-0.0208,-0.0208,0,0,0,0,0,0,0,0,0,0,0,0,0,-0.016,-0.0134,-0.018,-0.019,-0.0192,-0.0218,-0.0219,-0.0219,-0.0227,-0.0226,-0.0226,-0.0226,-0.0209,-0.0208,-0.0208,-0.0211,0,0,-0.0207,-0.0207,0,0,0,0,0,0,0,0,-0.0158,-0.0161,-0.0188,-0.019,-0.0191,-0.0218,-0.0196,-0.0214,-0.0227,-0.0212,-0.0226,-0.0226,-0.0208,-0.0207,-0.0214,-0.021,-0.0209,-0.0207,-0.0206,-0.0206,-0.0206,0,0,0,0,0,0,0,-0.0156,-0.016,-0.0194,-0.0189,-0.0191,-0.02,-0.0203,-0.02,-0.0209,-0.0213,-0.0214,-0.0221,-0.0208,-0.0215,-0.0214,-0.0209,-0.0207,-0.0206,-0.0206,-0.0206,-0.0217,-0.0218,0,0,0,0,0,0,-0.0154,-0.0158,-0.0193,-0.0195,-0.0175,-0.0201,-0.0205,-0.0209,-0.021,-0.0211,-0.0221,-0.0221,-0.0216,-0.0214,-0.0213,-0.0206,-0.0206,-0.0206,-0.0206,-0.0217,-0.0217,-0.0218,0,0,0,0,0,0,-0.0152,-0.0156,-0.0191,-0.0178,-0.0184,-0.0202,-0.0207,-0.021,-0.0216,-0.0217,-0.0216,-0.0225,-0.0215,-0.0214,-0.0217,-0.0206,-0.0206,-0.0205,-0.0216,-0.0217,-0.0218,-0.0199,0,0,0,0,0,0,-0.0151,-0.0155,-0.0157,-0.0178,-0.0184,-0.0201,-0.0208,-0.0211,-0.0221,-0.0222,-0.022,-0.0218,-0.0215,-0.0218,-0.0217,-0.0205,-0.0205,-0.0215,-0.0217,-0.0218,-0.0199,-0.0199,-0.0199,0,0,0,0,0,-0.0149,-0.0148,-0.0157,-0.0161,-0.0186,-0.0201,-0.0205,-0.0217,-0.0222,-0.0222,-0.0229,-0.0218,-0.0224,-0.0218,-0.0216,-0.0205,-0.0215,-0.0216,-0.0217,-0.0199,-0.0199,-0.0199,0,0,0,0,0,0,-0.0127,-0.0149,-0.0159,-0.0165,-0.0182,-0.0203,-0.0204,-0.0217,-0.0225,-0.0222,-0.0225,-0.0224,-0.0223,-0.0224,-0.0218,-0.0215,-0.0217,-0.0218,-0.0204,-0.0204,-0.0204,-0.0177,-0.0204,0,0,0,0,0,-0.0124,-0.0128,-0.0154,-0.0157,-0.0164,-0.0186,-0.0194,-0.0203,-0.0214,-0.0218,-0.022,-0.0224,-0.0229,-0.0224,-0.0227,-0.0223,-0.0228,-0.0217,-0.0217,-0.0217,-0.0197,-0.0212,-0.0211,-0.0222,-0.0222,-0.0222,0,0,-0.0117,-0.013,-0.0132,-0.0153,-0.0164,-0.0163,-0.0189,-0.0196,-0.0192,-0.0213,-0.0205,-0.0224,-0.0231,-0.0229,-0.0227,-0.0224,-0.0222,-0.0219,-0.0218,-0.0198,-0.0213,-0.0212,-0.0211,-0.0223,-0.0223,-0.0223,0,0,-0.0096,-0.0114,-0.0107,-0.0118,-0.0135,-0.0148,-0.015,-0.0172,-0.0177,-0.0184,-0.0198,-0.0214,-0.0216,-0.022,-0.0223,-0.0227,-0.0226,-0.023,-0.0199,-0.0215,-0.0214,-0.0213,-0.0233,-0.0234,-0.0225,-0.0225,-0.0225,0,-0.0084,-0.0079,-0.0108,-0.0101,-0.0101,-0.0137,-0.0124,-0.0137,-0.0157,-0.0155,-0.0175,-0.0195,-0.0209,-0.0201,-0.0209,-0.0223,-0.0234,-0.0195,-0.0213,-0.0212,-0.0211,-0.0232,-0.0233,-0.0224,-0.0224,-0.0224,-0.0224,0,-0.0056,-0.0051,-0.0046,-0.0047,-0.0054,-0.0049,-0.007,-0.0073,-0.0091,-0.0107,-0.0116,-0.0151,-0.0157,-0.0175,-0.0192,-0.019,-0.0203,-0.0216,-0.0207,-0.0209,-0.0232,-0.0233,-0.0223,-0.0223,-0.0223,-0.0223,0,0,-0.0028,-0.0025,-0.0022,-0.0007,-0.0023,-0.002,-0.0012,-0.0014,0.0002,-0.0038,-0.002,-0.0065,-0.0093,-0.0099,-0.013,-0.0149,-0.0172,-0.0175,-0.0177,-0.0185,-0.0209,-0.0234,-0.0238,-0.0188,-0.0187,-0.0187,-0.0233,0,0.0007,0.0039,0.0027,0.0062,0.0078,0.0057,0.007,0.0062,0.0048,0.0054,0.0006,0.0005,-0.0061,-0.0062,-0.0097,-0.0144,-0.0172,-0.0158,-0.0215,-0.0216,-0.0229,-0.0239,-0.021,-0.0248,-0.0234,-0.0234,-0.0234,0,0.0043,0.0061,0.0101,0.0128,0.0133,0.0146,0.017,0.0179,0.017,0.0161,0.0139,0.0102,0.0068,0.0012,-0.0075,-0.0063,-0.0131,-0.0179,-0.0182,-0.0206,-0.0243,-0.0243,-0.0251,-0.0236,-0.0236,-0.0236,-0.0236,0,0.0087,0.0117,0.0154,0.0161,0.0179,0.02,0.0212,0.0212,0.0241,0.0238,0.026,0.0193,0.0182,0.0086,-0.0034,-0.0049,-0.0128,-0.0161,-0.0251,-0.0254,-0.0237,-0.0239,-0.022,-0.022,-0.022,-0.022,-0.0219,0,0.0129,0.0163,0.018,0.0203,0.0258,0.0249,0.0309,0.0313,0.0338,0.0396,0.0322,0.035,0.0201,0.0132,0.0007,-0.0124,-0.0103,-0.0239,-0.0263,-0.0234,-0.0234,-0.0226,-0.0226,-0.0221,-0.0221,-0.0221,-0.022,0,0.0169,0.0179,0.0232,0.0265,0.0281,0.0322,0.0385,0.043,0.0442,0.0523,0.0534,0.0474,0.0382,0.0223,0.0073,-0.0057,-0.0185,-0.0238,-0.0198,-0.0218,-0.0313,-0.0312,-0.034,-0.0341,-0.0342,-0.0343,-0.0344,0,0.0193,0.0221,0.0283,0.0327,0.0347,0.0408,0.0456,0.0483,0.0542,0.0609,0.0655,0.0591,0.0556,0.0306,0.007,-0.0153,-0.0183,-0.0274,-0.0304,-0.0302,-0.0323,-0.0321,-0.0318,-0.0282,-0.0283,-0.0283,-0.0283,0,0.0243,0.0264,0.0309,0.0394,0.0455,0.0533,0.0607,0.0667,0.0725,0.0792,0.0855,0.0835,0.0605,0.0372,0.0056,-0.0093,-0.024,-0.0284,-0.0278,-0.0259,-0.0252,-0.0272,-0.027,-0.0284,-0.0284,-0.0284,-0.0284,-0.0284,0.0286,0.0327,0.0387,0.0468,0.0547,0.0646,0.0726,0.0804,0.0906,0.1005,0.0979,0.096,0.0701,0.0292,0.0022,-0.0255,-0.0249,-0.0344,-0.0341,-0.0339,-0.0327,-0.0322,-0.0365,-0.0365,-0.0366,-0.0366,-0.0366,0,0.0335,0.0382,0.046,0.0562,0.065,0.0691,0.0821,0.089,0.1014,0.1089,0.1123,0.0887,0.0634,0.0348,-0.0065,-0.0323,-0.0336,-0.0396,-0.0354,-0.0351,-0.0348,-0.0335,-0.0377,-0.0378,-0.0379,-0.0379,0,0,0.037,0.0439,0.0472,0.062,0.0707,0.0842,0.0924,0.1013,0.1082,0.1125,0.1128,0.1075,0.074,0.0437,0.009,-0.014,-0.0186,-0.0185,-0.0147,-0.0054,-0.0049,-0.0289,-0.0261,0,0,0,0,0]}],[{"header":{"parameterUnit":"m.s-1","parameterCategory":2,"la1":30.2991,"la2":30.254,"lo1":-89.0895,"lo2":-89.0444,"dy":0.0017,"dx":0.0017,"nx":28,"ny":28,"refTime":"2024-05-21T03:00:00:Z","depth":"4","parameterNumber":2,"parameterNumberName":"U-component_of_CURRENTS"},"data":[0,0,0,0,0,0,0,0,0,0,0,0,0,0,0,0,0,0,0,0,0,0,0,0,0,0,0,0,0,0,0,0,0,0,0,0,0,0,0,0,0,0,0,0,0,0,0,0,0,0,0,0,0,0,0,0,0,0,0.112,0.1121,0,0.1145,0.1145,0.1145,0.1174,0.1175,0.1175,0.1176,0.1244,0.1246,0.1247,0,0,0,0,0,0,0,0,0,0,0,0,0,0.1084,0.1085,0.112,0.1121,0.1121,0.1145,0.1145,0.1145,0.1174,0.1175,0.1175,0.1176,0.1244,0.1246,0.1247,0,0,0,0,0,0,0,0,0,0,0,0,0,0.1102,0.1085,0.112,0.114,0.1142,0.1145,0.1145,0.1145,0.1174,0.1175,0.1176,0.1177,0.1244,0.1245,0.1247,0.1241,0,0,0.1253,0.1254,0,0,0,0,0,0,0,0,0.1101,0.1103,0.1136,0.1138,0.1141,0.1159,0.1158,0.118,0.1174,0.116,0.1176,0.1177,0.1221,0.1224,0.1224,0.1244,0.1247,0.1253,0.1254,0.1255,0.1256,0,0,0,0,0,0,0,0.1099,0.1102,0.1128,0.1137,0.114,0.1143,0.1146,0.1162,0.1184,0.1161,0.1164,0.1169,0.1222,0.1222,0.1226,0.1248,0.1253,0.1255,0.1256,0.1257,0.1341,0.1342,0,0,0,0,0,0,0.11,0.1101,0.1127,0.1129,0.1125,0.1143,0.1147,0.1151,0.1183,0.1189,0.1168,0.117,0.1218,0.1223,0.1228,0.1321,0.1255,0.1257,0.1258,0.134,0.1342,0.1343,0,0,0,0,0,0,0.1099,0.1102,0.1126,0.1117,0.1121,0.1143,0.1147,0.1151,0.1181,0.1188,0.1195,0.1199,0.1219,0.1226,0.1268,0.132,0.1258,0.1259,0.1339,0.1341,0.1342,0.1444,0,0,0,0,0,0,0.1098,0.1101,0.1118,0.1117,0.1121,0.1148,0.1147,0.1151,0.1182,0.1186,0.1216,0.1221,0.122,0.1265,0.127,0.1322,0.1261,0.1337,0.134,0.1342,0.1439,0.1449,0.1457,0,0,0,0,0,0.1096,0.1108,0.1119,0.1123,0.1139,0.1149,0.1152,0.1169,0.1183,0.12,0.1222,0.1222,0.1281,0.1267,0.1273,0.1327,0.1336,0.1339,0.1341,0.1435,0.1447,0.1457,0,0,0,0,0,0,0.11,0.1112,0.1124,0.114,0.1156,0.1156,0.1176,0.1187,0.1216,0.1232,0.1237,0.1244,0.1303,0.1291,0.1275,0.1353,0.1309,0.1313,0.1378,0.1389,0.1398,0.1389,0.1263,0,0,0,0,0,0.1109,0.1124,0.1135,0.1152,0.1163,0.1177,0.119,0.1203,0.1221,0.1236,0.1258,0.1281,0.131,0.1331,0.1349,0.139,0.1392,0.1425,0.1434,0.1442,0.1436,0.1483,0.1496,0.1351,0.1351,0.1351,0,0,0.1118,0.1126,0.1137,0.1155,0.117,0.119,0.1187,0.1217,0.1244,0.1239,0.1294,0.1318,0.1328,0.1379,0.1404,0.1382,0.149,0.1445,0.1452,0.1442,0.1487,0.1501,0.1514,0.1353,0.1352,0.1352,0,0,0.1135,0.1151,0.1171,0.1187,0.1217,0.122,0.1237,0.126,0.1286,0.1332,0.1344,0.1389,0.143,0.1447,0.146,0.1522,0.1538,0.1545,0.1589,0.1635,0.1648,0.1659,0.1707,0.1722,0.1548,0.1549,0.1549,0,0.1149,0.1171,0.118,0.1203,0.1225,0.1239,0.1269,0.1289,0.1327,0.1357,0.1363,0.1446,0.1456,0.152,0.1546,0.1545,0.158,0.1554,0.165,0.166,0.167,0.1716,0.1731,0.1554,0.1553,0.1553,0.1552,0,0.1175,0.1205,0.1219,0.1252,0.1275,0.1303,0.1329,0.1366,0.1401,0.1424,0.1507,0.1527,0.1573,0.1596,0.1594,0.1677,0.1685,0.1661,0.1627,0.1691,0.1735,0.1749,0.1561,0.1559,0.1558,0.1557,0,0,0.1176,0.1227,0.1237,0.1265,0.1307,0.1324,0.1377,0.1424,0.1471,0.1522,0.159,0.1644,0.1669,0.1682,0.1701,0.1742,0.1848,0.1743,0.1743,0.18,0.1978,0.1859,0.1862,0.1863,0.1866,0.1867,0.1992,0,0.12,0.1248,0.1271,0.1327,0.1355,0.139,0.1435,0.1485,0.1533,0.1599,0.1643,0.1715,0.1698,0.1751,0.1787,0.1841,0.1885,0.1817,0.1897,0.1899,0.1793,0.1873,0.1875,0.2002,0.2005,0.2007,0.2009,0,0.1218,0.1249,0.1307,0.1371,0.1389,0.1428,0.1508,0.1552,0.1635,0.1685,0.1757,0.1794,0.188,0.1848,0.1959,0.1932,0.1959,0.1984,0.1989,0.1843,0.1804,0.1916,0.2033,0.2031,0.2029,0.2027,0.2026,0,0.1204,0.1274,0.1321,0.1342,0.1413,0.1461,0.1507,0.1587,0.1639,0.1754,0.1818,0.1903,0.1976,0.2023,0.207,0.2042,0.2183,0.2141,0.2054,0.2047,0.2072,0.2058,0.2203,0.2203,0.2202,0.2202,0.2202,0,0.1201,0.1242,0.1325,0.1347,0.1412,0.1473,0.155,0.1613,0.1715,0.178,0.1868,0.1937,0.203,0.2108,0.2123,0.2139,0.2226,0.2074,0.2071,0.2114,0.2104,0.2084,0.2068,0.2207,0.2206,0.2205,0.2204,0,0.1164,0.122,0.1275,0.1368,0.1404,0.1451,0.1562,0.1612,0.1731,0.1825,0.1876,0.201,0.2115,0.2181,0.2275,0.2205,0.223,0.2207,0.2277,0.2275,0.2052,0.204,0.2123,0.212,0.2117,0.2115,0.2113,0,0.1141,0.1171,0.1274,0.1309,0.1355,0.1436,0.1487,0.1606,0.1658,0.1844,0.188,0.204,0.2107,0.2152,0.2225,0.226,0.2218,0.2219,0.2095,0.2055,0.2045,0.2038,0.203,0.2109,0.2108,0.2107,0.2107,0,0.1096,0.1146,0.1189,0.1261,0.1323,0.1377,0.1465,0.1493,0.1631,0.1759,0.1843,0.1905,0.2018,0.2079,0.2133,0.2139,0.2211,0.219,0.2194,0.2077,0.2038,0.203,0.2025,0.2097,0.2099,0.21,0.21,0,0.1059,0.1075,0.1142,0.1196,0.1265,0.1295,0.135,0.1417,0.1485,0.1674,0.1702,0.1863,0.1997,0.202,0.2066,0.2075,0.2024,0.1934,0.195,0.1962,0.1848,0.1771,0.1759,0,0,0,0,0,0.1008,0.1022,0.1071,0.1115,0.118,0.1226,0.1321,0.1379,0.1509,0.1523,0.1604,0.1694,0.1778,0.1865,0.184,0.1996,0.2033,0.1958,0.1937,0.2046,0.2057,0.1935,0,0,0,0,0,0,0.0969,0.1013,0.1039,0.1039,0.1059,0.1118,0.1176,0.127,0.1277,0.142,0.1475,0.1591,0.1698,0.1778,0.181,0.1835,0.1785,0.2057,0.2052,0.204,0.2049,0.2058,0.1937,0,0,0,0,0]},{"header":{"parameterUnit":"m.s-1","parameterCategory":2,"la1":30.2991,"la2":30.254,"lo1":-89.0895,"lo2":-89.0444,"dy":0.0017,"dx":0.0017,"nx":28,"ny":28,"refTime":"2024-05-21T03:00:00:Z","depth":"4","parameterNumber":3,"parameterNumberName":"V-component_of_CURRENTS"},"data":[0,0,0,0,0,0,0,0,0,0,0,0,0,0,0,0,0,0,0,0,0,0,0,0,0,0,0,0,0,0,0,0,0,0,0,0,0,0,0,0,0,0,0,0,0,0,0,0,0,0,0,0,0,0,0,0,0,0,-0.0121,-0.0121,0,-0.0177,-0.0178,-0.0178,-0.0226,-0.0226,-0.0227,-0.0227,-0.0332,-0.0334,-0.0336,0,0,0,0,0,0,0,0,0,0,0,0,0,-0.0088,-0.0088,-0.0121,-0.0121,-0.0122,-0.0177,-0.0178,-0.0178,-0.0226,-0.0226,-0.0227,-0.0227,-0.0331,-0.0334,-0.0337,0,0,0,0,0,0,0,0,0,0,0,0,0,-0.012,-0.0088,-0.0121,-0.0152,-0.0155,-0.0177,-0.0178,-0.0179,-0.0226,-0.0226,-0.0227,-0.0228,-0.033,-0.0333,-0.0337,-0.0345,0,0,-0.0348,-0.0349,0,0,0,0,0,0,0,0,-0.0118,-0.0121,-0.0146,-0.0149,-0.0153,-0.0194,-0.0204,-0.0237,-0.0226,-0.02,-0.0227,-0.0228,-0.0289,-0.0296,-0.0306,-0.035,-0.0355,-0.0348,-0.035,-0.0352,-0.0353,0,0,0,0,0,0,0,-0.0115,-0.0119,-0.0144,-0.0147,-0.0151,-0.0174,-0.0179,-0.0211,-0.0241,-0.0202,-0.0205,-0.021,-0.0292,-0.0302,-0.0309,-0.0356,-0.0348,-0.0351,-0.0353,-0.0355,-0.0404,-0.0403,0,0,0,0,0,0,-0.0104,-0.0117,-0.0142,-0.0145,-0.0136,-0.0174,-0.018,-0.0181,-0.024,-0.0249,-0.0209,-0.0212,-0.0296,-0.0304,-0.0313,-0.0324,-0.0352,-0.0355,-0.0357,-0.0405,-0.0404,-0.0403,0,0,0,0,0,0,-0.0103,-0.0106,-0.014,-0.0132,-0.0138,-0.0174,-0.0175,-0.0182,-0.0196,-0.0245,-0.0256,-0.0217,-0.0297,-0.0308,-0.0331,-0.0329,-0.0357,-0.036,-0.0406,-0.0404,-0.0403,-0.0349,0,0,0,0,0,0,-0.0102,-0.0105,-0.0104,-0.0131,-0.0138,-0.0147,-0.0174,-0.0182,-0.0197,-0.0201,-0.0255,-0.0265,-0.0298,-0.0326,-0.0335,-0.0334,-0.0363,-0.0407,-0.0405,-0.0404,-0.0352,-0.0346,-0.0341,0,0,0,0,0,-0.0101,-0.0093,-0.0103,-0.0106,-0.0134,-0.0146,-0.0152,-0.018,-0.0197,-0.0197,-0.0229,-0.0264,-0.0323,-0.0328,-0.0339,-0.0339,-0.0407,-0.0406,-0.0404,-0.0354,-0.0347,-0.0341,0,0,0,0,0,0,-0.008,-0.0098,-0.0109,-0.0109,-0.0124,-0.0154,-0.0158,-0.0177,-0.0202,-0.0209,-0.0256,-0.0267,-0.0291,-0.0315,-0.032,-0.0346,-0.037,-0.037,-0.0328,-0.0322,-0.0317,-0.0297,-0.0366,0,0,0,0,0,-0.0072,-0.0071,-0.0093,-0.0092,-0.0098,-0.0128,-0.0137,-0.0155,-0.018,-0.0192,-0.0228,-0.0262,-0.029,-0.0306,-0.0337,-0.0349,-0.0373,-0.0355,-0.0349,-0.0345,-0.0334,-0.036,-0.0357,-0.0397,-0.0397,-0.0397,0,0,-0.0065,-0.0074,-0.0074,-0.0087,-0.0103,-0.0106,-0.0135,-0.0145,-0.0146,-0.02,-0.0214,-0.025,-0.029,-0.0306,-0.0318,-0.0327,-0.0345,-0.0342,-0.0338,-0.033,-0.0358,-0.0354,-0.0351,-0.0396,-0.0396,-0.0396,0,0,-0.0047,-0.0055,-0.0051,-0.0058,-0.0075,-0.009,-0.009,-0.0117,-0.0128,-0.0142,-0.0181,-0.0204,-0.025,-0.0272,-0.029,-0.0271,-0.032,-0.0287,-0.0243,-0.0268,-0.0266,-0.0263,-0.0287,-0.0288,-0.028,-0.028,-0.028,0,-0.0039,-0.0033,-0.0051,-0.0048,-0.005,-0.0079,-0.0073,-0.0085,-0.0115,-0.0119,-0.0138,-0.0193,-0.023,-0.0245,-0.0237,-0.0259,-0.0284,-0.0267,-0.0262,-0.026,-0.0259,-0.0284,-0.0285,-0.0277,-0.0277,-0.0277,-0.0278,0,-0.0022,-0.0016,-0.0012,-0.0016,-0.0019,-0.0016,-0.0032,-0.0036,-0.0053,-0.007,-0.0089,-0.0131,-0.016,-0.0177,-0.0203,-0.021,-0.0234,-0.0257,-0.0279,-0.0251,-0.028,-0.0282,-0.0273,-0.0274,-0.0275,-0.0275,0,0,-0.0008,-0.0001,0.0001,0.0011,0.0001,0.0003,0.0009,0.0007,0.0013,-0.0017,-0.0012,-0.0056,-0.0082,-0.0102,-0.014,-0.0158,-0.0171,-0.0197,-0.02,-0.0221,-0.023,-0.0236,-0.024,-0.02,-0.02,-0.02,-0.0255,0,0.001,0.0032,0.0028,0.0052,0.0062,0.0051,0.0063,0.0057,0.0044,0.0042,0.0007,-0.001,-0.0052,-0.0065,-0.0089,-0.0154,-0.0174,-0.0154,-0.0253,-0.0256,-0.0265,-0.0241,-0.02,-0.0256,-0.0257,-0.0257,-0.0258,0,0.0025,0.0041,0.0068,0.0096,0.01,0.011,0.0127,0.0133,0.0124,0.0117,0.0097,0.0059,0.0031,-0.0008,-0.0092,-0.0081,-0.0145,-0.0194,-0.0198,-0.0222,-0.0265,-0.029,-0.0262,-0.0262,-0.0261,-0.0261,-0.0261,0,0.0044,0.0071,0.0099,0.0106,0.0127,0.0143,0.0154,0.0153,0.0172,0.0162,0.0172,0.012,0.0101,0.0021,-0.0082,-0.009,-0.0178,-0.0206,-0.027,-0.0272,-0.0276,-0.0278,-0.026,-0.026,-0.026,-0.026,-0.0259,0,0.0067,0.0089,0.0113,0.0129,0.017,0.0171,0.0209,0.0215,0.0231,0.0259,0.0212,0.0219,0.0107,0.004,-0.0059,-0.0166,-0.0164,-0.0253,-0.0282,-0.0252,-0.025,-0.0278,-0.0279,-0.0262,-0.0261,-0.0261,-0.026,0,0.0079,0.0095,0.013,0.0164,0.018,0.0206,0.0255,0.0284,0.0293,0.033,0.0334,0.0292,0.0203,0.0084,-0.0051,-0.0131,-0.0239,-0.0281,-0.0232,-0.0259,-0.0322,-0.032,-0.035,-0.035,-0.0351,-0.0351,-0.0352,0,0.0086,0.0105,0.0156,0.0184,0.0201,0.0244,0.0281,0.0312,0.0347,0.0374,0.0399,0.0333,0.0283,0.0104,-0.0036,-0.0221,-0.0254,-0.0307,-0.0316,-0.0304,-0.0329,-0.0326,-0.0323,-0.0352,-0.0353,-0.0353,-0.0353,0,0.0098,0.0115,0.0147,0.0205,0.025,0.0307,0.0361,0.0396,0.0435,0.0451,0.0458,0.0369,0.027,0.0114,-0.0032,-0.0167,-0.0269,-0.0313,-0.0313,-0.0322,-0.0308,-0.0331,-0.0328,-0.0355,-0.0354,-0.0354,-0.0354,0,0.0103,0.0125,0.0168,0.0222,0.0283,0.0347,0.0379,0.0428,0.0467,0.05,0.0497,0.0396,0.0336,0.0142,0.0009,-0.0126,-0.0166,-0.0209,-0.0215,-0.0215,-0.0166,-0.0127,-0.0133,0,0,0,0,0,0.0099,0.0126,0.0181,0.024,0.0305,0.034,0.0424,0.0454,0.0497,0.0513,0.051,0.0419,0.0238,0.0162,0.0026,-0.0026,-0.0207,-0.019,-0.0265,-0.0364,-0.0362,-0.0328,0,0,0,0,0,0,0.0092,0.0137,0.0175,0.0247,0.0287,0.0361,0.0416,0.0451,0.0464,0.0488,0.0396,0.0371,0.019,0.0304,0.0015,-0.0025,-0.0091,-0.0272,-0.0275,-0.0365,-0.0363,-0.0362,-0.0326,0,0,0,0,0]}]]